Powrót do katalogu

STARLINK-6288

AktywnyŁącznośćVLEO
NORAD 56398·PAYLOAD·🇺🇸 United States

Wystrzelony May 4, 2023 z Cape Canaveral Space Force Station

Loading…

Następne Przeloty (najbliższe 24 godziny)

TLE

ŚwieżeSource: CelesTrak SupGP

Epoka: Sep 14, 2026, 20:42 UTC

1 56398C 23061AA  26257.86298611  .00006321  00000+0  22897-3 0  2575
2 56398  43.0017 198.5616 0001515 262.0695 244.3719 15.27571003    18

Śledź STARLINK-6288 w czasie rzeczywistym z AllMySat

Download on the App Store